GPS BIIR-17M (32260 NORAD) Tracking and Keplerian Element Data

This shows tracking and keplerian element data for the satellite.

Feedback or suggestion? Click here.




ElementValue
Catalog32260
NameGPS BIIR-17M
Epoch Orbit8134
Epoch Day323.11922822
Epoch Year2018
RAAN194.6891
Inclination53.1751
Eccentricity0.0108788
Argument of Perigee41.1695
Mean Anonmoly319.7394
Mean Motion2.00572114
Decay Rate5.8E-07
L11 32260U 07047A 18323.11922822 .00000058 00000-0 00000+0 0 9997
L22 32260 53.1751 194.6891 0108788 41.1695 319.7394 2.00572114 81347

Live tracking and technical data element details for GPS BIIR-17M (NORAD 32260). GPS BIIR-17M can be tracked NOW for your location showing map with azimuth and elevation plus other details from your city location.

Track the satellite on the map from your city or location and see movement details for azimuth, elevation, latitude, longitude, range, height, and movement on the map or in text.







IsCatalogInMostPopularTable: catalog: 32260, numindb: 60
Update: records affected: 1



GetName: 32260 GPS BIIR-17M

Hit Count: updated at: Wed, 21 Nov 2018 06:43:03 GMT